OneWeb SL0370

operational
NORAD ID: 49296 Int'l Des: 2021-090 Owner: ONEWEBN Country: UK Constellation: oneweb
LEOCIRCULARPOLARONEWEB_TYPE

OneWeb SL0370について

説明を読み込み中...

リアルタイム位置

3D地球を読み込み中...

次回通過

高度履歴

Altitude vs Time

uPlot chart will show altitude changes over time

軌道要素

1 49296U 21090T 26035.44662735 .00000092 00000-0 19488-3 0 9999
2 49296 87.9223 300.9307 0001777 85.4772 274.6564 13.20773863212346
Epoch: Feb 4, 2026 • Age: 13 hours

現在のステータス

高度 1186.4 km
速度 7.26 km/s
衛星直下点 39.25°N, 172.72°E
打ち上げ日 Oct 14, 2021
運用期間 4.3 years
タイプ internet

技術仕様

分類 Payload
質量 148.00 kg
乾燥質量 140.00 kg
総質量 148.00 kg
長さ 1.30 m
直径 1.00 m
スパン 5.00 m
形状 Trapezoid+2 pan
製造者 ONEWUS
バスタイプ ARROW
フェーズステータス In Orbit
所有者/国 ONEWEBN/UK

大規模コンステレーション

Loading constellations...